owner,sensor,date,latitude,longitude,vertical_datum,wind_speed,wind_to_direction,wind_speed_of_gust,qcFlag 
TABS,ioos:station:wmo:42046:1,2007-04-01T00:00:00Z,27.8903,-94.0367,4.0,5.218620507,134.5345077,6.78,'11111222,11111222,11111222' 
TABS,ioos:station:wmo:42046:1,2007-04-01T00:30:00Z,27.8903,-94.0367,4.0,5.416133307,142.7284052,6.58,'11111222,11111222,11111222' 
TABS,ioos:station:wmo:42046:1,2007-04-01T01:00:00Z,27.8903,-94.0367,4.0,5.887070579,152.0422887,7.29,'11111222,11111222,11111222' 
TABS,ioos:station:wmo:42046:1,2007-04-01T01:30:00Z,27.8903,-94.0367,4.0,5.127231222,147.8290686,7.08,'11111222,11111222,11111222' 
TABS,ioos:station:wmo:42046:1,2007-04-01T02:00:00Z,27.8903,-94.0367,4.0,5.339672275,141.0053362,7.12,'11111222,11111222,11111222' 
TABS,ioos:station:wmo:42046:1,2007-04-01T02:30:00Z,27.8903,-94.0367,4.0,5.037588709,131.3788395,6.9,'11111222,11111222,11111222' 
TABS,ioos:station:wmo:42046:1,2007-04-01T03:00:00Z,27.8903,-94.0367,4.0,8.05722657,125.2486879,11.04,'11111222,11111222,11111222' 
TABS,ioos:station:wmo:42046:1,2007-04-01T03:30:00Z,27.8903,-94.0367,4.0,5.261606219,141.7146352,7.68,'11111222,11111222,11111222' 
TABS,ioos:station:wmo:42046:1,2007-04-01T04:00:00Z,27.8903,-94.0367,4.0,7.243403896,132.0345712,10.28,'11111222,11111222,11111222' 
TABS,ioos:station:wmo:42046:1,2007-04-01T04:30:00Z,27.8903,-94.0367,4.0,7.892002281,143.0868392,12.77,'11111222,11111222,11111222' 
TABS,ioos:station:wmo:42046:1,2007-04-01T05:00:00Z,27.8903,-94.0367,4.0,5.272769671,153.0464528,6.89,'11111222,11111222,11111222' 
TABS,ioos:station:wmo:42046:1,2007-04-01T05:30:00Z,27.8903,-94.0367,4.0,7.378868477,145.2118308,10.03,'11111222,11111222,11111222' 
TABS,ioos:station:wmo:42046:1,2007-04-01T06:00:00Z,27.8903,-94.0367,4.0,5.101862405,159.2207627,8.19,'11111222,11111222,11111222' 
TABS,ioos:station:wmo:42046:1,2007-04-01T06:30:00Z,27.8903,-94.0367,4.0,4.615246472,139.129703,6.73,'11111222,11111222,11111222' 
TABS,ioos:station:wmo:42046:1,2007-04-01T07:00:00Z,27.8903,-94.0367,4.0,13.14361062,165.4142153,17.7,'11111222,11111222,11111222' 
TABS,ioos:station:wmo:42046:1,2007-04-01T07:30:00Z,27.8903,-94.0367,4.0,10.58068051,180.6500387,15.23,'11111222,11111222,11111222' 
TABS,ioos:station:wmo:42046:1,2007-04-01T08:00:00Z,27.8903,-94.0367,4.0,11.6011939,174.112717,16.87,'11111222,11111222,11111222' 
TABS,ioos:station:wmo:42046:1,2007-04-01T08:30:00Z,27.8903,-94.0367,4.0,9.922545036,226.1025938,15.76,'11111222,11111222,11111222' 
TABS,ioos:station:wmo:42046:1,2007-04-01T09:00:00Z,27.8903,-94.0367,4.0,8.637366497,205.4378284,13.22,'11111222,11111222,11111222' 
TABS,ioos:station:wmo:42046:1,2007-04-01T09:30:00Z,27.8903,-94.0367,4.0,8.209287423,200.6869075,10.17,'11111222,11111222,11111222' 
TABS,ioos:station:wmo:42046:1,2007-04-01T10:00:00Z,27.8903,-94.0367,4.0,6.941447976,185.4561811,9.1,'11111222,11111222,11111222' 
TABS,ioos:station:wmo:42046:1,2007-04-01T10:30:00Z,27.8903,-94.0367,4.0,7.846636222,191.4676397,10.1,'11111222,11111222,11111222' 
TABS,ioos:station:wmo:42046:1,2007-04-01T11:00:00Z,27.8903,-94.0367,4.0,6.460495337,179.2907031,8.58,'11111222,11111222,11111222' 
TABS,ioos:station:wmo:42046:1,2007-04-01T11:30:00Z,27.8903,-94.0367,4.0,6.097647087,185.458347,7.96,'11111222,11111222,11111222' 
TABS,ioos:station:wmo:42046:1,2007-04-01T12:00:00Z,27.8903,-94.0367,4.0,5.567045895,182.8831672,7.46,'11111222,11111222,11111222' 
TABS,ioos:station:wmo:42046:1,2007-04-01T12:30:00Z,27.8903,-94.0367,4.0,5.23748031,222.5239983,7.35,'11111222,11111222,11111222' 
TABS,ioos:station:wmo:42046:1,2007-04-01T13:00:00Z,27.8903,-94.0367,4.0,6.171110111,184.7407099,9.39,'11111222,11111222,11111222' 
TABS,ioos:station:wmo:42046:1,2007-04-01T13:30:00Z,27.8903,-94.0367,4.0,5.461446695,205.486048,8.34,'11111222,11111222,11111222' 
TABS,ioos:station:wmo:42046:1,2007-04-01T14:00:00Z,27.8903,-94.0367,4.0,7.087820539,258.2779022,9.5,'11111222,11111222,11111222' 
TABS,ioos:station:wmo:42046:1,2007-04-01T14:30:00Z,27.8903,-94.0367,4.0,4.858199255,217.3889473,6.71,'11111222,11111222,11111222' 
TABS,ioos:station:wmo:42046:1,2007-04-01T15:00:00Z,27.8903,-94.0367,4.0,2.315534496,183.9624119,3.85,'11111222,11111222,11111222' 
TABS,ioos:station:wmo:42046:1,2007-04-01T15:30:00Z,27.8903,-94.0367,4.0,2.312249986,169.0304781,3.11,'11111222,11111222,11111222' 
TABS,ioos:station:wmo:42046:1,2007-04-01T16:00:00Z,27.8903,-94.0367,4.0,2.630361192,64.79851437,3.68,'11111222,11111222,11111222' 
TABS,ioos:station:wmo:42046:1,2007-04-01T16:30:00Z,27.8903,-94.0367,4.0,2.096115455,85.62184839,3.29,'11111222,11111222,11111222' 
TABS,ioos:station:wmo:42046:1,2007-04-01T17:00:00Z,27.8903,-94.0367,4.0,3.422864298,135.9472649,4.67,'11111222,11111222,11111222' 
TABS,ioos:station:wmo:42046:1,2007-04-01T17:30:00Z,27.8903,-94.0367,4.0,3.229489124,152.3243647,4.6,'11111222,11111222,11111222' 
TABS,ioos:station:wmo:42046:1,2007-04-01T18:00:00Z,27.8903,-94.0367,4.0,2.153415891,353.6008479,3.76,'11111222,11111222,11111222' 
TABS,ioos:station:wmo:42046:1,2007-04-01T18:30:00Z,27.8903,-94.0367,4.0,1.802054383,36.42447172,3.82,'11111222,11111222,11111222' 
TABS,ioos:station:wmo:42046:1,2007-04-01T19:00:00Z,27.8903,-94.0367,4.0,1.234827923,155.0954999,2.22,'11111222,11111222,11111222' 
TABS,ioos:station:wmo:42046:1,2007-04-01T19:30:00Z,27.8903,-94.0367,4.0,6.021627687,197.5925939,7.76,'11111222,11111222,11111222' 
TABS,ioos:station:wmo:42046:1,2007-04-01T20:00:00Z,27.8903,-94.0367,4.0,6.124997959,237.3997427,8.37,'11111222,11111222,11111222' 
TABS,ioos:station:wmo:42046:1,2007-04-01T20:30:00Z,27.8903,-94.0367,4.0,8.019039843,187.5240133,10.44,'11111222,11111222,11111222' 
TABS,ioos:station:wmo:42046:1,2007-04-01T21:00:00Z,27.8903,-94.0367,4.0,10.07345522,151.3489636,13.6,'11111222,11111222,11111222' 
TABS,ioos:station:wmo:42046:1,2007-04-01T21:30:00Z,27.8903,-94.0367,4.0,9.19026659,142.693988,13.24,'11111222,11111222,11111222' 
TABS,ioos:station:wmo:42046:1,2007-04-01T22:00:00Z,27.8903,-94.0367,4.0,7.071760743,134.1982291,9.54,'11111222,11111222,11111222' 
TABS,ioos:station:wmo:42046:1,2007-04-01T22:30:00Z,27.8903,-94.0367,4.0,6.318773615,155.5037825,8.5,'11111222,11111222,11111222' 
TABS,ioos:station:wmo:42046:1,2007-04-01T23:00:00Z,27.8903,-94.0367,4.0,4.438468204,51.21889946,9.03,'11111222,11111222,11111222' 
TABS,ioos:station:wmo:42046:1,2007-04-01T23:30:00Z,27.8903,-94.0367,4.0,5.384876972,57.66719283,7.44,'11111222,11111222,11111222' 
TABS,ioos:station:wmo:42046:1,2007-04-02T00:00:00Z,27.8903,-94.0367,4.0,6.352361766,64.84652076,8.1,'11111222,11111222,11111222' 
TABS,ioos:station:wmo:42046:1,2007-04-02T00:30:00Z,27.8903,-94.0367,4.0,6.399320276,67.68280644,8.14,'11111222,11111222,11111222' 
TABS,ioos:station:wmo:42046:1,2007-04-02T01:00:00Z,27.8903,-94.0367,4.0,6.062953076,68.21576901,7.96,'11111222,11111222,11111222' 
TABS,ioos:station:wmo:42046:1,2007-04-02T01:30:00Z,27.8903,-94.0367,4.0,5.692890303,70.60983435,7.55,'11111222,11111222,11111222' 
TABS,ioos:station:wmo:42046:1,2007-04-02T02:00:00Z,27.8903,-94.0367,4.0,5.13910498,77.64009926,6.37,'11111222,11111222,11111222' 
TABS,ioos:station:wmo:42046:1,2007-04-02T02:30:00Z,27.8903,-94.0367,4.0,5.03352759,83.38285666,6.86,'11111222,11111222,11111222' 
TABS,ioos:station:wmo:42046:1,2007-04-02T03:00:00Z,27.8903,-94.0367,4.0,5.02439051,87.60414595,6.39,'11111222,11111222,11111222' 
TABS,ioos:station:wmo:42046:1,2007-04-02T03:30:00Z,27.8903,-94.0367,4.0,4.852020198,91.6538567,6.16,'11111222,11111222,11111222' 
TABS,ioos:station:wmo:42046:1,2007-04-02T04:00:00Z,27.8903,-94.0367,4.0,4.711284326,91.33829258,6.15,'11111222,11111222,11111222' 
TABS,ioos:station:wmo:42046:1,2007-04-02T04:30:00Z,27.8903,-94.0367,4.0,4.461614058,91.54163596,6.0,'11111222,11111222,11111222' 
TABS,ioos:station:wmo:42046:1,2007-04-02T05:00:00Z,27.8903,-94.0367,4.0,3.767890657,105.5489148,5.07,'11111222,11111222,11111222' 
TABS,ioos:station:wmo:42046:1,2007-04-02T05:30:00Z,27.8903,-94.0367,4.0,3.393773711,107.3141198,4.36,'11111222,11111222,11111222' 
TABS,ioos:station:wmo:42046:1,2007-04-02T06:00:00Z,27.8903,-94.0367,4.0,3.222374901,108.2666451,4.13,'11111222,11111222,11111222' 
TABS,ioos:station:wmo:42046:1,2007-04-02T06:30:00Z,27.8903,-94.0367,4.0,3.331816321,116.1808812,4.43,'11111222,11111222,11111222' 
TABS,ioos:station:wmo:42046:1,2007-04-02T07:00:00Z,27.8903,-94.0367,4.0,3.10104821,114.5819379,4.1,'11111222,11111222,11111222' 
TABS,ioos:station:wmo:42046:1,2007-04-02T07:30:00Z,27.8903,-94.0367,4.0,2.591235227,114.3894201,3.22,'11111222,11111222,11111222' 
TABS,ioos:station:wmo:42046:1,2007-04-02T08:00:00Z,27.8903,-94.0367,4.0,3.139681513,124.0953191,4.23,'11111222,11111222,11111222' 
TABS,ioos:station:wmo:42046:1,2007-04-02T08:30:00Z,27.8903,-94.0367,4.0,2.698036323,127.1675384,3.6,'11111222,11111222,11111222' 
TABS,ioos:station:wmo:42046:1,2007-04-02T09:00:00Z,27.8903,-94.0367,4.0,2.615893729,119.7995671,3.48,'11111222,11111222,11111222' 
TABS,ioos:station:wmo:42046:1,2007-04-02T09:30:00Z,27.8903,-94.0367,4.0,2.829363886,119.1926394,3.55,'11111222,11111222,11111222' 
TABS,ioos:station:wmo:42046:1,2007-04-02T10:00:00Z,27.8903,-94.0367,4.0,2.488453335,111.20319,3.23,'11111222,11111222,11111222' 
TABS,ioos:station:wmo:42046:1,2007-04-02T10:30:00Z,27.8903,-94.0367,4.0,3.177703573,112.7727991,4.33,'11111222,11111222,11111222' 
TABS,ioos:station:wmo:42046:1,2007-04-02T11:00:00Z,27.8903,-94.0367,4.0,3.178049716,118.9849135,4.14,'11111222,11111222,11111222' 
TABS,ioos:station:wmo:42046:1,2007-04-02T11:30:00Z,27.8903,-94.0367,4.0,3.404761372,141.9186859,4.61,'11111222,11111222,11111222' 
TABS,ioos:station:wmo:42046:1,2007-04-02T12:00:00Z,27.8903,-94.0367,4.0,3.532208941,137.6393294,4.69,'11111222,11111222,11111222' 
TABS,ioos:station:wmo:42046:1,2007-04-02T12:30:00Z,27.8903,-94.0367,4.0,3.365011144,131.5066023,4.29,'11111222,11111222,11111222' 
TABS,ioos:station:wmo:42046:1,2007-04-02T13:00:00Z,27.8903,-94.0367,4.0,3.797959979,133.826826,4.93,'11111222,11111222,11111222' 
TABS,ioos:station:wmo:42046:1,2007-04-02T13:30:00Z,27.8903,-94.0367,4.0,4.451482899,146.4530143,5.57,'11111222,11111222,11111222' 
TABS,ioos:station:wmo:42046:1,2007-04-02T14:00:00Z,27.8903,-94.0367,4.0,3.956008089,147.5957427,5.09,'11111222,11111222,11111222' 
TABS,ioos:station:wmo:42046:1,2007-04-02T14:30:00Z,27.8903,-94.0367,4.0,3.68126337,152.3214731,5.03,'11111222,11111222,11111222' 
TABS,ioos:station:wmo:42046:1,2007-04-02T15:00:00Z,27.8903,-94.0367,4.0,3.118236681,151.8737469,4.13,'11111222,11111222,11111222' 
TABS,ioos:station:wmo:42046:1,2007-04-02T15:30:00Z,27.8903,-94.0367,4.0,3.579287639,144.6673087,4.63,'11111222,11111222,11111222' 
TABS,ioos:station:wmo:42046:1,2007-04-02T16:00:00Z,27.8903,-94.0367,4.0,3.501556797,150.5801315,4.43,'11111222,11111222,11111222' 
TABS,ioos:station:wmo:42046:1,2007-04-02T16:30:00Z,27.8903,-94.0367,4.0,4.636938645,151.1136962,6.12,'11111222,11111222,11111222' 
TABS,ioos:station:wmo:42046:1,2007-04-02T17:00:00Z,27.8903,-94.0367,4.0,4.179581319,151.4116988,5.55,'11111222,11111222,11111222' 
TABS,ioos:station:wmo:42046:1,2007-04-02T17:30:00Z,27.8903,-94.0367,4.0,3.665310355,144.6625046,4.61,'11111222,11111222,11111222' 
TABS,ioos:station:wmo:42046:1,2007-04-02T18:00:00Z,27.8903,-94.0367,4.0,3.694996617,150.3130982,4.89,'11111222,11111222,11111222' 
TABS,ioos:station:wmo:42046:1,2007-04-02T18:30:00Z,27.8903,-94.0367,4.0,3.028349385,144.0007415,4.12,'11111222,11111222,11111222' 
TABS,ioos:station:wmo:42046:1,2007-04-02T19:00:00Z,27.8903,-94.0367,4.0,2.585033849,152.8404783,3.46,'11111222,11111222,11111222' 
TABS,ioos:station:wmo:42046:1,2007-04-02T19:30:00Z,27.8903,-94.0367,4.0,2.33430932,144.0631506,3.09,'11111222,11111222,11111222' 
TABS,ioos:station:wmo:42046:1,2007-04-02T20:00:00Z,27.8903,-94.0367,4.0,3.026945655,136.0711376,3.77,'11111222,11111222,11111222' 
TABS,ioos:station:wmo:42046:1,2007-04-02T20:30:00Z,27.8903,-94.0367,4.0,3.323386827,141.4751156,4.43,'11111222,11111222,11111222' 
TABS,ioos:station:wmo:42046:1,2007-04-02T21:00:00Z,27.8903,-94.0367,4.0,3.641565597,131.4378694,4.69,'11111222,11111222,11111222' 
TABS,ioos:station:wmo:42046:1,2007-04-02T21:30:00Z,27.8903,-94.0367,4.0,3.44200523,126.9701084,4.29,'11111222,11111222,11111222' 
TABS,ioos:station:wmo:42046:1,2007-04-02T22:00:00Z,27.8903,-94.0367,4.0,3.337184442,115.1832095,4.33,'11111222,11111222,11111222' 
TABS,ioos:station:wmo:42046:1,2007-04-02T22:30:00Z,27.8903,-94.0367,4.0,3.501156952,107.4520291,4.81,'11111222,11111222,11111222' 
TABS,ioos:station:wmo:42046:1,2007-04-02T23:00:00Z,27.8903,-94.0367,4.0,3.369896141,124.1148141,4.5,'11111222,11111222,11111222' 
TABS,ioos:station:wmo:42046:1,2007-04-02T23:30:00Z,27.8903,-94.0367,4.0,1.248679302,148.0921781,1.91,'11111222,11111222,11111222' 
TABS,ioos:station:wmo:42046:1,2007-04-03T00:00:00Z,27.8903,-94.0367,4.0,2.159467527,149.9921236,2.9,'11111222,11111222,11111222' 
TABS,ioos:station:wmo:42046:1,2007-04-03T00:30:00Z,27.8903,-94.0367,4.0,2.00551739,158.0396978,2.64,'11111222,11111222,11111222' 
TABS,ioos:station:wmo:42046:1,2007-04-03T01:00:00Z,27.8903,-94.0367,4.0,2.010795862,146.1521652,2.58,'11111222,11111222,11111222' 
TABS,ioos:station:wmo:42046:1,2007-04-03T01:30:00Z,27.8903,-94.0367,4.0,2.200954338,129.8392297,2.75,'11111222,11111222,11111222' 
TABS,ioos:station:wmo:42046:1,2007-04-03T02:00:00Z,27.8903,-94.0367,4.0,2.128403157,109.2014932,2.77,'11111222,11111222,11111222' 
TABS,ioos:station:wmo:42046:1,2007-04-03T02:30:00Z,27.8903,-94.0367,4.0,2.828374091,125.9383486,3.68,'11111222,11111222,11111222' 
TABS,ioos:station:wmo:42046:1,2007-04-03T03:00:00Z,27.8903,-94.0367,4.0,2.906905571,133.745867,3.87,'11111222,11111222,11111222' 
TABS,ioos:station:wmo:42046:1,2007-04-03T03:30:00Z,27.8903,-94.0367,4.0,3.677893419,128.7087975,5.32,'11111222,11111222,11111222' 
TABS,ioos:station:wmo:42046:1,2007-04-03T04:00:00Z,27.8903,-94.0367,4.0,3.039802625,124.0040688,3.85,'11111222,11111222,11111222' 
TABS,ioos:station:wmo:42046:1,2007-04-03T04:30:00Z,27.8903,-94.0367,4.0,3.16267292,129.2260033,4.62,'11111222,11111222,11111222' 
TABS,ioos:station:wmo:42046:1,2007-04-03T05:00:00Z,27.8903,-94.0367,4.0,5.062114183,147.0950445,6.16,'11111222,11111222,11111222' 
TABS,ioos:station:wmo:42046:1,2007-04-03T05:30:00Z,27.8903,-94.0367,4.0,5.110968597,151.2287748,6.46,'11111222,11111222,11111222' 
TABS,ioos:station:wmo:42046:1,2007-04-03T06:00:00Z,27.8903,-94.0367,4.0,4.463765227,152.5167326,5.87,'11111222,11111222,11111222' 
TABS,ioos:station:wmo:42046:1,2007-04-03T06:30:00Z,27.8903,-94.0367,4.0,4.656189429,148.9732163,6.03,'11111222,11111222,11111222' 
TABS,ioos:station:wmo:42046:1,2007-04-03T07:00:00Z,27.8903,-94.0367,4.0,5.725425748,147.3372139,7.63,'11111222,11111222,11111222' 
TABS,ioos:station:wmo:42046:1,2007-04-03T07:30:00Z,27.8903,-94.0367,4.0,4.815028557,156.6298034,6.71,'11111222,11111222,11111222' 
TABS,ioos:station:wmo:42046:1,2007-04-03T08:00:00Z,27.8903,-94.0367,4.0,4.67822616,159.0858514,6.23,'11111222,11111222,11111222' 
TABS,ioos:station:wmo:42046:1,2007-04-03T08:30:00Z,27.8903,-94.0367,4.0,4.970160963,156.2718749,6.5,'11111222,11111222,11111222' 
TABS,ioos:station:wmo:42046:1,2007-04-03T09:00:00Z,27.8903,-94.0367,4.0,4.830372656,154.2309431,6.29,'11111222,11111222,11111222' 
TABS,ioos:station:wmo:42046:1,2007-04-03T09:30:00Z,27.8903,-94.0367,4.0,5.236888389,153.5820075,6.48,'11111222,11111222,11111222' 
TABS,ioos:station:wmo:42046:1,2007-04-03T10:00:00Z,27.8903,-94.0367,4.0,5.002159534,155.1771281,6.61,'11111222,11111222,11111222' 
TABS,ioos:station:wmo:42046:1,2007-04-03T10:30:00Z,27.8903,-94.0367,4.0,4.782342522,156.3297273,6.29,'11111222,11111222,11111222' 
TABS,ioos:station:wmo:42046:1,2007-04-03T11:00:00Z,27.8903,-94.0367,4.0,3.914715826,155.0717946,5.11,'11111222,11111222,11111222' 
TABS,ioos:station:wmo:42046:1,2007-04-03T11:30:00Z,27.8903,-94.0367,4.0,4.850773134,157.4530855,6.25,'11111222,11111222,11111222' 
TABS,ioos:station:wmo:42046:1,2007-04-03T12:00:00Z,27.8903,-94.0367,4.0,4.437082375,156.2082217,5.52,'11111222,11111222,11111222' 
TABS,ioos:station:wmo:42046:1,2007-04-03T12:30:00Z,27.8903,-94.0367,4.0,4.488440709,151.37963,5.74,'11111222,11111222,11111222' 
TABS,ioos:station:wmo:42046:1,2007-04-03T13:00:00Z,27.8903,-94.0367,4.0,4.289813516,148.0515323,5.67,'11111222,11111222,11111222' 
TABS,ioos:station:wmo:42046:1,2007-04-03T13:30:00Z,27.8903,-94.0367,4.0,3.971259246,153.3706993,5.49,'11111222,11111222,11111222' 
TABS,ioos:station:wmo:42046:1,2007-04-03T14:00:00Z,27.8903,-94.0367,4.0,4.056316063,153.8142389,5.28,'11111222,11111222,11111222' 
TABS,ioos:station:wmo:42046:1,2007-04-03T14:30:00Z,27.8903,-94.0367,4.0,4.1320818,142.7698794,5.15,'11111222,11111222,11111222' 
TABS,ioos:station:wmo:42046:1,2007-04-03T15:00:00Z,27.8903,-94.0367,4.0,4.605844114,151.0423349,6.03,'11111222,11111222,11111222' 
TABS,ioos:station:wmo:42046:1,2007-04-03T15:30:00Z,27.8903,-94.0367,4.0,4.512936959,147.1201246,5.86,'11111222,11111222,11111222' 
TABS,ioos:station:wmo:42046:1,2007-04-03T16:00:00Z,27.8903,-94.0367,4.0,4.723261585,154.4117572,5.94,'11111222,11111222,11111222' 
TABS,ioos:station:wmo:42046:1,2007-04-03T16:30:00Z,27.8903,-94.0367,4.0,4.674665763,159.2003425,5.92,'11111222,11111222,11111222' 
TABS,ioos:station:wmo:42046:1,2007-04-03T17:00:00Z,27.8903,-94.0367,4.0,4.057437615,156.4679169,5.15,'11111222,11111222,11111222' 
TABS,ioos:station:wmo:42046:1,2007-04-03T17:30:00Z,27.8903,-94.0367,4.0,4.230980974,152.7084657,5.61,'11111222,11111222,11111222' 
TABS,ioos:station:wmo:42046:1,2007-04-03T18:00:00Z,27.8903,-94.0367,4.0,3.611786262,158.0515627,4.7,'11111222,11111222,11111222' 
TABS,ioos:station:wmo:42046:1,2007-04-03T18:30:00Z,27.8903,-94.0367,4.0,3.757046713,150.5013013,4.86,'11111222,11111222,11111222' 
TABS,ioos:station:wmo:42046:1,2007-04-03T19:00:00Z,27.8903,-94.0367,4.0,3.865294297,151.9103502,5.12,'11111222,11111222,11111222' 
TABS,ioos:station:wmo:42046:1,2007-04-03T19:30:00Z,27.8903,-94.0367,4.0,3.899910255,152.8438883,4.93,'11111222,11111222,11111222' 
TABS,ioos:station:wmo:42046:1,2007-04-03T20:00:00Z,27.8903,-94.0367,4.0,4.130907891,156.9109474,5.24,'11111222,11111222,11111222' 
TABS,ioos:station:wmo:42046:1,2007-04-03T20:30:00Z,27.8903,-94.0367,4.0,4.462846625,159.1286622,5.85,'11111222,11111222,11111222' 
TABS,ioos:station:wmo:42046:1,2007-04-03T21:00:00Z,27.8903,-94.0367,4.0,4.180837237,160.8718966,5.34,'11111222,11111222,11111222' 
TABS,ioos:station:wmo:42046:1,2007-04-03T21:30:00Z,27.8903,-94.0367,4.0,3.972807571,160.2882248,5.32,'11111222,11111222,11111222' 
TABS,ioos:station:wmo:42046:1,2007-04-03T22:00:00Z,27.8903,-94.0367,4.0,3.859144983,160.1566793,5.15,'11111222,11111222,11111222' 
TABS,ioos:station:wmo:42046:1,2007-04-03T22:30:00Z,27.8903,-94.0367,4.0,3.714969717,149.777149,4.96,'11111222,11111222,11111222' 
TABS,ioos:station:wmo:42046:1,2007-04-03T23:00:00Z,27.8903,-94.0367,4.0,3.347715639,148.6843034,4.38,'11111222,11111222,11111222' 
TABS,ioos:station:wmo:42046:1,2007-04-03T23:30:00Z,27.8903,-94.0367,4.0,3.402601946,144.2081441,4.35,'11111222,11111222,11111222' 
TABS,ioos:station:wmo:42046:1,2007-04-04T00:00:00Z,27.8903,-94.0367,4.0,3.238826948,135.7508707,3.99,'11111222,11111222,11111222' 
TABS,ioos:station:wmo:42046:1,2007-04-04T00:30:00Z,27.8903,-94.0367,4.0,3.307234494,139.9063712,4.33,'11111222,11111222,11111222' 
TABS,ioos:station:wmo:42046:1,2007-04-04T01:00:00Z,27.8903,-94.0367,4.0,3.182907476,141.7621899,4.15,'11111222,11111222,11111222' 
TABS,ioos:station:wmo:42046:1,2007-04-04T01:30:00Z,27.8903,-94.0367,4.0,3.588997074,146.7087167,4.88,'11111222,11111222,11111222' 
TABS,ioos:station:wmo:42046:1,2007-04-04T02:00:00Z,27.8903,-94.0367,4.0,2.773463539,139.5334547,3.56,'11111222,11111222,11111222' 
TABS,ioos:station:wmo:42046:1,2007-04-04T02:30:00Z,27.8903,-94.0367,4.0,3.038321905,140.0740086,3.91,'11111222,11111222,11111222' 
TABS,ioos:station:wmo:42046:1,2007-04-04T03:00:00Z,27.8903,-94.0367,4.0,3.860686467,140.9928291,4.87,'11111222,11111222,11111222' 
TABS,ioos:station:wmo:42046:1,2007-04-04T03:30:00Z,27.8903,-94.0367,4.0,3.110016077,129.7823108,3.77,'11111222,11111222,11111222' 
TABS,ioos:station:wmo:42046:1,2007-04-04T04:00:00Z,27.8903,-94.0367,4.0,2.554094752,127.3637613,3.42,'11111222,11111222,11111222' 
TABS,ioos:station:wmo:42046:1,2007-04-04T04:30:00Z,27.8903,-94.0367,4.0,1.399785698,116.7484625,1.88,'11111222,11111222,11111222' 
TABS,ioos:station:wmo:42046:1,2007-04-04T05:00:00Z,27.8903,-94.0367,4.0,1.595054858,124.7863666,2.24,'11111222,11111222,11111222' 
TABS,ioos:station:wmo:42046:1,2007-04-04T05:30:00Z,27.8903,-94.0367,4.0,2.684864987,138.4731011,3.52,'11111222,11111222,11111222' 
TABS,ioos:station:wmo:42046:1,2007-04-04T06:00:00Z,27.8903,-94.0367,4.0,2.169331694,130.8880965,2.66,'11111222,11111222,11111222' 
TABS,ioos:station:wmo:42046:1,2007-04-04T06:30:00Z,27.8903,-94.0367,4.0,1.809668478,119.8237736,2.45,'11111222,11111222,11111222' 
TABS,ioos:station:wmo:42046:1,2007-04-04T07:00:00Z,27.8903,-94.0367,4.0,1.329097438,103.9320776,1.87,'11111222,11111222,11111222' 
TABS,ioos:station:wmo:42046:1,2007-04-04T07:30:00Z,27.8903,-94.0367,4.0,0.894930165,108.2328694,1.38,'11111222,11111222,11111222' 
TABS,ioos:station:wmo:42046:1,2007-04-04T08:00:00Z,27.8903,-94.0367,4.0,1.596151622,143.9201386,2.08,'11111222,11111222,11111222' 
TABS,ioos:station:wmo:42046:1,2007-04-04T08:30:00Z,27.8903,-94.0367,4.0,1.960841656,137.6873094,2.93,'11111222,11111222,11111222' 
TABS,ioos:station:wmo:42046:1,2007-04-04T09:00:00Z,27.8903,-94.0367,4.0,2.173407463,132.2030787,2.83,'11111222,11111222,11111222' 
TABS,ioos:station:wmo:42046:1,2007-04-04T09:30:00Z,27.8903,-94.0367,4.0,2.34763711,163.4178873,2.96,'11111222,11111222,11111222' 
TABS,ioos:station:wmo:42046:1,2007-04-04T10:00:00Z,27.8903,-94.0367,4.0,2.83388426,168.8092572,3.54,'11111222,11111222,11111222' 
TABS,ioos:station:wmo:42046:1,2007-04-04T10:30:00Z,27.8903,-94.0367,4.0,2.706011826,154.3821706,3.49,'11111222,11111222,11111222' 
TABS,ioos:station:wmo:42046:1,2007-04-04T11:00:00Z,27.8903,-94.0367,4.0,1.392838828,164.1678609,2.09,'11111222,11111222,11111222' 
TABS,ioos:station:wmo:42046:1,2007-04-04T11:30:00Z,27.8903,-94.0367,4.0,0.472652092,83.92713688,1.05,'11111222,11111222,11111222' 
TABS,ioos:station:wmo:42046:1,2007-04-04T12:00:00Z,27.8903,-94.0367,4.0,0.790759129,76.84206711,1.32,'11111222,11111222,11111222' 
TABS,ioos:station:wmo:42046:1,2007-04-04T12:30:00Z,27.8903,-94.0367,4.0,2.56456624,68.7375554,3.14,'11111222,11111222,11111222' 
TABS,ioos:station:wmo:42046:1,2007-04-04T13:00:00Z,27.8903,-94.0367,4.0,2.235441791,56.30959034,2.93,'11111222,11111222,11111222' 
TABS,ioos:station:wmo:42046:1,2007-04-04T13:30:00Z,27.8903,-94.0367,4.0,1.033102125,62.93853623,1.48,'11111222,11111222,11111222' 
TABS,ioos:station:wmo:42046:1,2007-04-04T14:00:00Z,27.8903,-94.0367,4.0,0.831985577,76.79852278,1.12,'11111222,11111222,11111222' 
TABS,ioos:station:wmo:42046:1,2007-04-04T14:30:00Z,27.8903,-94.0367,4.0,0.636003145,36.68942658,1.02,'11111222,11111222,11111222' 
TABS,ioos:station:wmo:42046:1,2007-04-04T15:00:00Z,27.8903,-94.0367,4.0,1.594553229,51.62044491,2.3,'11111222,11111222,11111222' 
TABS,ioos:station:wmo:42046:1,2007-04-04T15:30:00Z,27.8903,-94.0367,4.0,1.816865433,49.911461,2.47,'11111222,11111222,11111222' 
TABS,ioos:station:wmo:42046:1,2007-04-04T16:00:00Z,27.8903,-94.0367,4.0,1.44692778,40.51508879,2.35,'11111222,11111222,11111222' 
TABS,ioos:station:wmo:42046:1,2007-04-04T16:30:00Z,27.8903,-94.0367,4.0,0.907964757,82.40495347,1.93,'11111222,11111222,11111222' 
TABS,ioos:station:wmo:42046:1,2007-04-04T17:00:00Z,27.8903,-94.0367,4.0,1.134372073,170.8700553,1.62,'11111222,11111222,11111222' 
TABS,ioos:station:wmo:42046:1,2007-04-04T17:30:00Z,27.8903,-94.0367,4.0,2.658589852,144.3373522,4.7,'11111222,11111222,11111222' 
TABS,ioos:station:wmo:42046:1,2007-04-04T18:00:00Z,27.8903,-94.0367,4.0,10.2932405,137.7565749,13.3,'11111222,11111222,11111222' 
TABS,ioos:station:wmo:42046:1,2007-04-04T18:30:00Z,27.8903,-94.0367,4.0,10.77313789,141.7474859,13.83,'11111222,11111222,11111222' 